This is the latest recevied weather packets stored in our database for station/object KF4WSW-13. If no packets are shown the sender has not sent any weather packets the latest 10 day(s).
| Time | Temp. | Humidity | Pressure | Rain* | Wind** | Luminosity | Snow |
|---|---|---|---|---|---|---|---|
| 1777118952 | 21.67° C | 84% | 1009.9 hPa | 0 mm | - | 115 W/m² | - |
| 1777118648 | 21.67° C | 84% | 1009.8 hPa | 0 mm | - | 103 W/m² | - |
| 1777118348 | 21.67° C | 84% | 1009.9 hPa | 0 mm | - | 90 W/m² | - |
| 1777118046 | 21.67° C | 84% | 1009.8 hPa | 0 mm | - | 77 W/m² | - |
| 1777117742 | 21.67° C | 84% | 1009.9 hPa | 0 mm | - | 34 W/m² | - |
| 1777117440 | 21.11° C | 86% | 1009.8 hPa | 0 mm | - | 56 W/m² | - |
| 1777117135 | 21.11° C | 86% | 1010 hPa | 0 mm | - | 46 W/m² | - |
| 1777116831 | 20.56° C | 88% | 1010 hPa | 0 mm | - | 38 W/m² | - |
| 1777116527 | 20.56° C | 89% | 1010 hPa | 0 mm | - | 31 W/m² | - |
| 1777116224 | 20° C | 89% | 1009.8 hPa | 0 mm | - | 24 W/m² | - |
| 1777115919 | 20° C | 90% | 1009.7 hPa | 0 mm | - | 19 W/m² | - |
| 1777115615 | 20° C | 91% | 1009.7 hPa | 0 mm | - | 14 W/m² | - |
| 1777115310 | 20° C | 91% | 1009.6 hPa | 0 mm | - | 9 W/m² | - |
| 1777115007 | 20° C | 91% | 1009.3 hPa | 0 mm | - | 6 W/m² | - |
| 1777114705 | 20° C | 91% | 1009.6 hPa | 0 mm | - | 3 W/m² | - |
| 1777114399 | 19.44° C | 91% | 1009.5 hPa | 0 mm | - | 2 W/m² | - |
| 1777114096 | 19.44° C | 91% | 1009.6 hPa | 0 mm | - | 1 W/m² | - |
| 1777113792 | 19.44° C | 91% | 1009.5 hPa | 0 mm | - | 0 W/m² | - |
| 1777113489 | 19.44° C | 91% | 1009.5 hPa | 0 mm | - | 0 W/m² | - |
| 1777113185 | 19.44° C | 90% | 1009.5 hPa | 0 mm | - | 0 W/m² | - |
| 1777112880 | 19.44° C | 90% | 1009.4 hPa | 0 mm | - | 0 W/m² | - |
| 1777112577 | 19.44° C | 90% | 1009.3 hPa | 0 mm | - | 0 W/m² | - |
| 1777112273 | 20° C | 90% | 1009.3 hPa | 0 mm | - | 0 W/m² | - |
| 1777111970 | 20° C | 89% | 1009.3 hPa | 0 mm | - | 0 W/m² | - |
| 1777111666 | 20° C | 89% | 1009.2 hPa | 0 mm | - | 0 W/m² | - |
* Rain latest hour (hover to see other rain measurements)
** Current wind speed in m/s (hover to see current wind gust speed)